Pendleton, OR

11:36 AM PST on December 16, 2017 (GMT -0800)
Eastern Oreg Regional At Pendleton

Weather History for KPDT - July, 2013

Change the Weather History Date:

Friday, July 26, 2013

  Actual Average Record
Temperature  
Mean Temperature 78 °F 74 °F  
Max Temperature 99 °F 90 °F 109 °F (1928)
Min Temperature 56 °F 59 °F 40 °F (1908)
Degree Days  
Heating Degree Days 0 0  
Month to date heating degree days 0 7  
Since 1 June heating degree days 80 90  
Since 1 July heating degree days 0 7  
Cooling Degree Days 13 9  
Month to date cooling degree days 293 197  
Year to date cooling degree days 419 299  
Since 1 June cooling degree days 388 276  
Growing Degree Days 27 (Base 50)    
Moisture  
Dew Point 32 °F    
Average Humidity 19    
Maximum Humidity 33    
Minimum Humidity 5    
Precipitation  
Precipitation 0.00 in 0.01 in 0.52 in (1940)
Month to date precipitation 0.06 0.28  
Year to date precipitation 4.97 7.67  
Snow  
Snow 0.00 in 0.00 in 0.00 in (2002)
Month to date snowfall 0.0 0.0  
Year to date snowfall 0.2 7.7  
Since 1 July snowfall 0.0 0.0  
Snow Depth 0.00 in    
Sea Level Pressure  
Sea Level Pressure 29.95 in    
Wind  
Wind Speed 10 mph (West)    
Max Wind Speed 23 mph    
Max Gust Speed 28 mph    
Visibility 10 miles    
Events      
T = Trace of Precipitation, MM = Missing Value Source: NWS Daily Summary

Daily Weather History Graph

Daily Weather History Graph

Search for Another Location

Airport or City:

Trip Planner

Search our weather history database for the weather conditions in past years. The results will help you decide how hot, cold, wet, or windy it might be!

Date:

Astronomy

Jul. 26, 2013 Rise Set
Actual Time 5:32 AM PDT 8:30 PM PDT
Civil Twilight 4:57 AM PDT 9:05 PM PDT
Nautical Twilight 4:12 AM PDT 9:50 PM PDT
Astronomical Twilight 3:18 AM PDT 10:43 PM PDT
Moon 10:28 PM PDT (7/26) 10:31 AM PDT (7/26)
Length of Visible Light 16h 08m
Length of Day
14h 58m
Waning Gibbous, 79% of the Moon is Illuminated
Jul 26
Waning Gibbous
Jul 29
Last Quarter
Aug 6
New
Aug 14
First Quarter
Aug 20
Full

Hourly Weather History & Observations

Time (PDT) Temp. Dew Point Humidity Pressure Visibility Wind Dir Wind Speed Gust Speed Precip Events Conditions
12:53 AM 63.0 °F 30.0 °F 29% 29.94 in 10.0 mi ESE 5.8 mph - N/A   Clear
1:53 AM 64.9 °F 30.9 °F 28% 29.94 in 10.0 mi SSE 6.9 mph - N/A   Clear
2:53 AM 66.0 °F 30.0 °F 26% 29.95 in 10.0 mi ESE 8.1 mph - N/A   Clear
3:53 AM 62.1 °F 30.9 °F 31% 29.96 in 10.0 mi ESE 6.9 mph - N/A   Clear
4:53 AM 61.0 °F 30.9 °F 32% 29.98 in 10.0 mi ESE 6.9 mph - N/A   Clear
5:53 AM 59.0 °F 30.9 °F 35% 30.00 in 10.0 mi SE 6.9 mph - N/A   Clear
6:53 AM 66.0 °F 32.0 °F 28% 29.99 in 10.0 mi SE 9.2 mph - N/A   Clear
7:53 AM 73.0 °F 32.0 °F 22% 30.00 in 10.0 mi SE 4.6 mph - N/A   Clear
8:53 AM 80.1 °F 30.0 °F 16% 30.01 in 10.0 mi Calm Calm - N/A   Clear
9:53 AM 84.9 °F 37.0 °F 18% 30.00 in 10.0 mi West 10.4 mph - N/A   Clear
10:53 AM 89.1 °F 37.0 °F 16% 29.99 in 10.0 mi WNW 10.4 mph - N/A   Clear
11:53 AM 91.0 °F 35.1 °F 14% 29.99 in 10.0 mi NW 9.2 mph - N/A   Clear
12:53 PM 93.9 °F 35.1 °F 13% 29.97 in 10.0 mi WNW 8.1 mph - N/A   Clear
1:53 PM 96.1 °F 34.0 °F 11% 29.95 in 10.0 mi NW 9.2 mph 17.3 mph N/A   Clear
2:53 PM 98.1 °F 30.9 °F 9% 29.94 in 10.0 mi WNW 13.8 mph - N/A   Clear
3:53 PM 96.1 °F 28.0 °F 9% 29.92 in 10.0 mi WNW 9.2 mph 19.6 mph N/A   Clear
4:53 PM 96.1 °F 15.1 °F 5% 29.91 in 10.0 mi WNW 10.4 mph 17.3 mph N/A   Clear
5:53 PM 97.0 °F 25.0 °F 8% 29.90 in 10.0 mi NW 12.7 mph - N/A   Clear
6:53 PM 96.1 °F 21.0 °F 7% 29.88 in 10.0 mi WNW 10.4 mph - N/A   Clear
7:53 PM 90.0 °F 25.0 °F 10% 29.87 in 10.0 mi NNW 6.9 mph - N/A   Clear
8:53 PM 84.9 °F 24.1 °F 11% 29.87 in 10.0 mi NW 3.5 mph - N/A   Clear
9:53 PM 82.9 °F 43.0 °F 24% 29.89 in 10.0 mi West 18.4 mph - N/A   Clear
10:53 PM 82.0 °F 44.1 °F 26% 29.92 in 10.0 mi WSW 15.0 mph - N/A   Clear
11:53 PM 79.0 °F 45.0 °F 30% 29.94 in 10.0 mi WSW 15.0 mph - N/A   Clear